Temp
21 21 22 22 25 24 25 26 25 27 29 27 26 27 29 27 29 29 24 23 23 23 22 21 21 21 21 21 21 21 21 21 21 21 21 21 21 21 21 21 21 20 20 20 21 21 20 20 20
21 21 22 22 25 25 26 25 26 27 27 26 26 26 27 28 24 24 24 24 23 23 22 22 21 21 21 21 21 21 21 21 21 21 21 21 21 21 21 21 21 21 21 21 21 20 20 20 19
21 21 22 25 24 25 26 25 26 27 26 25 27 26 26 26 24 26 26 25 24 23 22 22 22 22 22 21 21 21 21 21 21 22 21 21 21 21 21 21 21 20 20 21 20 20 20 20 19
21 21 20 23 24 24 26 26 25 27 28 26 26 28 25 25 26 26 25 25 24 23 22 22 22 22 22 22 22 22 21 21 22 22 21 21 21 21 21 21 21 21 21 21 21 20 20 20 20
20 20 23 23 24 24 25 25 25 27 27 27 26 27 26 26 26 25 25 24 24 23 22 22 22 22 22 21 21 22 22 22 22 22 21 21 21 21 21 21 21 21 21 21 21 20 20 20 20
20 19 22 23 23 24 25 25 26 26 27 27 27 26 26 25 25 25 25 24 24 23 22 22 22 21 21 21 21 21 22 22 21 21 21 21 21 21 21 21 21 21 21 20 20 20 20 20 19
21 21 23 22 23 24 26 24 26 26 26 27 25 28 25 25 25 25 24 24 23 22 22 22 22 22 21 21 21 21 21 21 21 21 21 21 21 21 21 20 21 21 21 20 20 20 20 20 20
19 21 21 22 23 24 25 24 25 25 27 25 25 28 27 24 25 25 24 24 23 22 22 22 22 22 21 21 21 21 21 21 21 21 21 21 21 21 20 20 20 20 20 20 20 20 20 20 20
19 20 21 22 21 24 23 25 24 25 24 25 25 25 25 25 24 24 24 23 23 22 22 22 22 22 21 21 21 21 20 20 20 21 21 21 21 21 21 21 21 21 20 20 20 20 20 20 19
20 19 20 22 23 23 23 23 23 26 25 25 24 25 25 25 24 24 24 23 23 23 23 22 22 22 21 21 21 21 20 20 20 20 20 20 20 20 20 20 20 20 20 21 20 20 20 20 20
18 19 20 21 21 22 23 23 23 25 26 25 25 22 23 23 24 23 23 23 24 23 23 23 22 22 21 21 21 21 21 20 20 20 20 20 20 20 20 20 20 20 20 20 20 20 21 20 20
19 19 19 21 21 22 23 22 24 23 25 24 24 24 24 24 24 24 24 24 24 24 23 23 23 22 22 22 22 22 21 21 21 20 20 20 20 19 19 19 19 19 19 20 20 20 20 21 20
16 20 18 18 21 21 21 22 23 23 25 24 24 24 25 25 24 24 24 23 23 24 24 24 23 23 23 22 22 22 22 21 21 21 20 20 20 20 19 19 19 19 19 19 19 19 19 19 20
18 17 19 20 20 20 21 22 20 23 24 24 24 24 25 25 26 26 25 25 24 24 24 23 23 23 23 23 22 22 21 21 21 21 21 20 20 20 20 19 19 19 19 19 19 18 18 19 18
18 18 19 20 19 20 20 21 21 22 24 23 24 24 24 25 25 25 26 26 26 26 26 25 24 23 23 23 22 22 21 21 21 21 21 20 20 20 20 19 19 19 19 19 18 19 19 19 18
18 19 18 21 20 21 21 21 23 24 23 23 24 24 24 25 25 25 25 25 25 25 25 25 24 24 23 23 22 22 22 21 21 21 20 20 20 19 19 19 19 19 19 19 18 18 19 18 19
18 19 19 20 20 21 21 22 22 22 21 23 22 24 25 25 25 25 25 25 25 25 25 25 25 25 24 22 22 21 21 20 21 20 20 20 20 19 18 19 19 19 18 19 18 18 19 18 18
18 19 19 20 20 20 21 21 22 21 21 22 23 23 23 24 25 25 25 25 25 25 25 25 25 25 25 24 22 20 19 19 20 20 19 19 19 19 20 20 19 19 19 19 19 19 19 19 19
20 19 19 20 20 20 21 22 22 22 21 22 22 22 23 23 25 24 25 25 25 25 24 25 25 24 24 24 23 21 20 20 20 19 19 19 19 19 19 19 19 19 19 19 19 19 18 19 19
19 19 18 19 19 20 20 21 22 22 22 22 22 21 21 22 23 23 24 25 25 25 25 25 25 24 24 24 24 22 21 19 18 18 18 19 19 19 19 19 19 19 18 18 18 18 18 18 17
18 18 18 19 18 19 19 20 21 23 20 21 21 20 21 22 23 23 24 24 24 24 24 25 25 24 24 23 23 21 20 18 18 18 17 18 19 19 19 19 18 18 18 17 17 17 17 17 17
17 18 19 18 18 19 18 20 19 21 22 21 21 21 21 22 23 23 24 24 25 25 24 24 24 24 23 23 22 21 21 20 18 17 18 18 18 18 18 18 17 16 16 16 16 16 16 16 15
19 18 18 18 17 18 18 19 20 18 21 22 22 20 21 21 22 23 23 24 24 24 24 24 24 23 22 21 21 20 19 17 18 18 18 18 18 18 17 17 16 15 15 15 15 15 15 15 14
18 18 16 16 17 18 19 19 20 20 21 21 21 20 19 20 21 22 23 23 24 24 24 23 22 21 20 19 18 18 18 19 19 19 18 18 18 17 16 16 16 15 15 15 14 14 14 14 14
18 18 17 17 18 18 16 18 20 19 19 19 19 19 17 19 20 21 21 21 21 21 21 20 18 18 17 17 17 18 19 19 19 18 18 18 17 17 16 16 15 15 15 15 14 14 14 14 13
18 19 18 16 17 18 15 18 20 17 17 16 17 16 16 16 16 17 18 18 17 17 17 17 17 17 18 18 19 19 19 18 18 18 18 17 17 16 16 16 15 15 15 14 14 14 14 14 14
17 17 19 17 14 17 18 17 18 17 17 17 17 16 16 16 16 16 17 17 16 15 16 17 18 18 19 19 18 18 18 18 18 17 17 17 16 16 16 15 15 15 14 14 14 14 14 14 14
18 18 17 17 16 16 17 16 19 17 17 17 17 16 15 15 16 16 16 16 16 16 17 17 17 18 18 17 17 17 17 17 16 16 16 16 16 16 15 15 15 14 14 14 13 13 13 13 13
17 17 15 17 16 17 17 18 17 17 16 16 16 15 15 15 15 15 16 16 17 17 17 17 17 17 16 16 16 16 15 15 16 16 16 15 15 14 14 14 14 14 14 14 13 13 13 12 12
14 15 16 16 15 14 15 17 16 16 15 15 15 15 15 14 14 15 16 16 16 17 17 17 16 16 16 16 15 15 15 15 15 15 15 14 14 14 14 13 13 13 13 13 12 12 12 12 12
Height
1520 1520 1519 1520 1522 1517 1517 1512 1509 1503 1500 1501 1501 1500 1496 1495 1495 1501 1498 1501 1505 1509 1512 1515 1519 1522 1525 1528 1531 1533 1536 1537 1539 1542 1543 1544 1546 1548 1549 1551 1553 1554 1556 1557 1558 1559 1560 1561 1561
1518 1519 1518 1517 1517 1520 1513 1508 1507 1504 1501 1499 1498 1499 1497 1495 1496 1496 1498 1502 1506 1510 1513 1516 1519 1523 1526 1530 1532 1534 1537 1538 1540 1542 1543 1545 1547 1549 1550 1552 1554 1555 1556 1557 1559 1560 1561 1562 1563
1516 1517 1518 1512 1514 1513 1510 1506 1506 1504 1500 1499 1497 1498 1497 1496 1495 1497 1499 1502 1506 1510 1514 1517 1520 1523 1527 1530 1533 1535 1538 1540 1541 1543 1544 1546 1548 1550 1552 1553 1555 1556 1558 1559 1560 1562 1562 1563 1564
1516 1517 1518 1512 1510 1506 1502 1504 1505 1502 1499 1498 1498 1496 1497 1496 1498 1499 1501 1503 1507 1511 1514 1518 1521 1524 1527 1530 1533 1536 1538 1540 1541 1543 1545 1547 1549 1551 1553 1555 1556 1558 1559 1560 1561 1562 1564 1564 1565
1514 1514 1512 1512 1508 1504 1503 1504 1504 1501 1500 1498 1498 1496 1498 1498 1499 1501 1503 1505 1507 1510 1514 1518 1522 1525 1528 1531 1534 1536 1538 1540 1542 1544 1546 1549 1551 1553 1555 1557 1558 1559 1561 1562 1563 1564 1565 1565 1566
1514 1515 1511 1511 1509 1503 1502 1501 1501 1501 1497 1497 1497 1498 1498 1498 1500 1501 1504 1506 1510 1513 1515 1518 1522 1526 1529 1532 1534 1537 1539 1541 1543 1545 1547 1549 1552 1554 1556 1557 1559 1560 1561 1563 1564 1565 1565 1566 1566
1513 1512 1507 1509 1507 1504 1499 1499 1498 1499 1498 1496 1496 1496 1498 1497 1498 1500 1503 1505 1509 1513 1516 1519 1522 1526 1529 1532 1534 1536 1538 1541 1543 1546 1548 1550 1552 1554 1555 1557 1558 1560 1561 1562 1563 1564 1565 1565 1566
1513 1512 1511 1507 1507 1503 1500 1499 1496 1498 1497 1496 1496 1494 1497 1497 1498 1500 1503 1506 1509 1513 1517 1519 1522 1525 1528 1531 1534 1536 1538 1541 1543 1545 1548 1549 1552 1554 1555 1556 1558 1559 1560 1561 1562 1563 1563 1564 1564
1511 1511 1510 1506 1508 1500 1499 1496 1493 1496 1498 1497 1495 1494 1495 1497 1499 1501 1503 1506 1508 1511 1515 1518 1521 1524 1527 1530 1533 1536 1538 1541 1543 1545 1547 1549 1551 1552 1554 1556 1557 1558 1559 1559 1561 1562 1563 1564 1563
1508 1509 1506 1503 1503 1500 1499 1498 1497 1496 1496 1496 1495 1493 1493 1495 1499 1502 1503 1506 1508 1510 1513 1516 1519 1522 1525 1529 1531 1534 1536 1538 1540 1543 1545 1547 1549 1551 1553 1555 1556 1557 1559 1560 1560 1562 1562 1563 1564
1502 1504 1504 1503 1503 1502 1500 1498 1497 1495 1494 1496 1495 1492 1492 1495 1499 1502 1503 1506 1508 1511 1512 1515 1518 1521 1523 1526 1529 1531 1533 1535 1537 1540 1543 1545 1547 1549 1551 1553 1555 1556 1557 1557 1558 1560 1561 1561 1561
1499 1502 1504 1504 1502 1501 1500 1500 1496 1496 1494 1495 1496 1495 1493 1495 1497 1499 1502 1505 1506 1509 1511 1513 1516 1518 1521 1524 1526 1529 1530 1532 1534 1537 1540 1542 1544 1546 1549 1551 1552 1553 1554 1555 1556 1556 1556 1558 1557
1503 1497 1503 1507 1503 1500 1500 1498 1498 1491 1491 1494 1493 1493 1493 1493 1496 1498 1501 1503 1506 1508 1510 1511 1514 1515 1518 1520 1523 1525 1527 1529 1532 1534 1537 1539 1541 1543 1546 1548 1549 1551 1551 1552 1554 1554 1553 1553 1553
1491 1497 1500 1502 1498 1492 1496 1494 1497 1489 1489 1490 1491 1490 1490 1492 1494 1496 1498 1500 1502 1505 1506 1509 1511 1513 1515 1517 1519 1521 1523 1525 1528 1530 1533 1536 1538 1540 1542 1544 1545 1545 1547 1547 1548 1549 1548 1548 1548
1488 1493 1494 1494 1494 1491 1491 1491 1488 1486 1486 1486 1486 1486 1488 1490 1492 1494 1496 1498 1500 1501 1503 1504 1506 1508 1510 1512 1515 1516 1518 1522 1525 1528 1531 1532 1534 1536 1538 1539 1540 1541 1541 1542 1542 1543 1544 1543 1542
1483 1489 1490 1481 1487 1488 1489 1481 1479 1480 1478 1481 1482 1481 1484 1486 1489 1491 1492 1494 1496 1497 1499 1500 1502 1503 1506 1508 1510 1512 1515 1519 1522 1524 1526 1529 1531 1534 1536 1534 1535 1536 1537 1537 1537 1538 1537 1537 1537
1481 1478 1484 1481 1478 1481 1486 1478 1474 1477 1477 1477 1478 1479 1480 1481 1483 1485 1487 1489 1491 1493 1495 1496 1497 1499 1501 1502 1504 1507 1511 1514 1517 1519 1522 1525 1526 1528 1531 1529 1530 1531 1531 1532 1532 1533 1532 1532 1531
1476 1477 1475 1477 1477 1478 1476 1474 1472 1473 1475 1475 1475 1475 1475 1475 1476 1479 1481 1484 1487 1489 1491 1493 1495 1496 1496 1497 1499 1503 1506 1510 1513 1516 1518 1520 1522 1523 1525 1526 1526 1526 1526 1526 1526 1527 1526 1526 1527
1465 1470 1474 1474 1473 1472 1475 1471 1469 1469 1472 1471 1470 1470 1468 1467 1471 1473 1475 1478 1481 1483 1486 1489 1490 1492 1493 1494 1495 1497 1500 1505 1509 1512 1514 1516 1517 1519 1519 1521 1521 1520 1521 1521 1522 1521 1520 1519 1519
1466 1469 1476 1473 1470 1472 1473 1471 1468 1467 1466 1466 1466 1467 1465 1464 1466 1469 1470 1472 1474 1477 1480 1483 1486 1487 1490 1492 1493 1494 1496 1501 1506 1509 1511 1512 1514 1515 1515 1516 1516 1516 1515 1516 1516 1515 1514 1513 1513
1466 1467 1474 1472 1472 1471 1472 1471 1467 1462 1463 1464 1463 1464 1463 1462 1463 1465 1466 1468 1470 1473 1475 1479 1481 1483 1486 1487 1489 1491 1495 1499 1502 1504 1507 1509 1510 1511 1511 1511 1511 1511 1511 1510 1509 1509 1508 1507 1507
1472 1468 1467 1470 1476 1477 1471 1476 1470 1463 1461 1462 1461 1461 1460 1459 1460 1462 1463 1464 1465 1468 1472 1475 1476 1479 1480 1482 1485 1488 1491 1495 1498 1502 1505 1506 1507 1507 1507 1506 1506 1506 1505 1505 1504 1503 1502 1501 1500
1461 1462 1464 1466 1471 1472 1472 1473 1463 1466 1460 1457 1457 1458 1457 1458 1459 1461 1460 1460 1461 1464 1466 1468 1470 1472 1474 1477 1480 1485 1488 1493 1496 1499 1501 1502 1502 1502 1502 1502 1501 1500 1500 1499 1497 1497 1496 1495 1494
1456 1460 1465 1467 1467 1467 1462 1464 1459 1459 1455 1455 1455 1456 1456 1456 1456 1456 1455 1455 1456 1458 1459 1460 1463 1466 1470 1473 1477 1481 1486 1489 1493 1495 1496 1498 1499 1499 1499 1498 1497 1496 1496 1494 1493 1492 1491 1490 1489
1455 1457 1468 1471 1468 1463 1467 1465 1452 1455 1455 1455 1454 1453 1455 1454 1453 1453 1452 1451 1451 1452 1452 1454 1458 1463 1468 1473 1478 1482 1485 1487 1490 1491 1492 1494 1495 1495 1495 1494 1493 1492 1491 1490 1489 1488 1487 1486 1485
1451 1451 1457 1474 1471 1460 1470 1460 1449 1455 1458 1457 1457 1456 1455 1455 1456 1454 1453 1451 1449 1448 1449 1452 1458 1465 1471 1474 1478 1481 1483 1485 1487 1488 1489 1490 1490 1490 1490 1489 1488 1487 1486 1486 1485 1485 1484 1483 1482
1454 1455 1449 1462 1476 1468 1458 1459 1455 1457 1458 1459 1460 1461 1461 1460 1458 1457 1455 1453 1451 1451 1455 1458 1461 1466 1470 1474 1477 1479 1481 1482 1483 1484 1484 1485 1485 1484 1484 1483 1483 1483 1482 1481 1480 1480 1480 1479 1478
1442 1447 1458 1459 1472 1475 1464 1465 1451 1457 1458 1459 1460 1462 1463 1462 1460 1458 1457 1457 1457 1457 1458 1460 1463 1466 1469 1471 1474 1475 1476 1477 1478 1478 1478 1478 1479 1478 1477 1477 1476 1476 1475 1475 1474 1474 1474 1474 1473
1446 1445 1453 1450 1460 1461 1465 1456 1452 1456 1459 1462 1464 1464 1464 1463 1461 1460 1459 1459 1459 1460 1462 1463 1464 1466 1467 1469 1470 1471 1471 1471 1471 1471 1471 1471 1471 1470 1469 1469 1469 1468 1467 1467 1466 1466 1466 1465 1465
1445 1445 1445 1451 1463 1469 1465 1457 1455 1457 1461 1463 1463 1464 1463 1462 1461 1460 1460 1460 1460 1461 1462 1462 1463 1463 1463 1464 1464 1464 1465 1464 1464 1463 1463 1463 1462 1461 1461 1461 1459 1458 1458 1458 1457 1457 1457 1456 1455
Wind_Speed
9 10 7 4 4 2 3 2 3 5 6 0 10 6 4 1 1 2 5 24 24 26 26 26 24 23 21 20 18 18 18 17 15 14 12 12 13 15 17 16 15 13 11 9 9 9 9 8 8
9 9 4 3 4 7 5 3 4 5 15 15 2 4 3 2 1 4 20 19 26 25 26 25 24 22 21 20 18 17 17 15 14 12 13 14 15 16 17 15 14 12 10 9 9 9 8 8 7
8 7 4 3 3 10 6 5 4 12 15 5 2 1 1 1 6 17 16 18 26 25 25 24 23 22 20 19 17 16 15 14 12 13 13 14 16 17 16 14 12 10 9 8 8 8 7 7 7
4 3 1 5 10 6 6 5 3 10 5 4 3 2 3 6 15 11 18 19 27 27 27 25 23 22 20 18 16 14 14 13 13 13 14 15 16 16 15 13 11 9 8 8 7 7 6 6 6
4 3 4 5 8 3 5 4 2 6 6 6 3 2 5 12 8 9 14 18 25 27 27 26 23 21 19 17 15 13 13 13 13 13 14 15 15 14 12 11 8 7 6 6 6 5 5 4 4
1 1 5 11 5 5 3 6 3 4 7 6 4 4 5 13 9 12 16 17 24 25 26 26 24 21 19 16 14 12 12 12 13 13 14 14 14 13 11 9 7 6 6 6 6 5 5 4 4
2 2 5 3 5 4 4 6 4 2 6 2 2 6 2 12 13 16 18 19 26 25 25 25 24 22 20 17 15 13 12 12 13 13 14 14 13 12 11 9 8 7 7 7 7 7 7 6 6
3 1 3 4 5 5 2 3 7 0 3 4 6 5 3 13 17 18 17 20 26 24 24 24 24 24 23 20 17 15 13 13 13 13 14 14 13 12 11 11 10 9 9 9 9 10 10 10 9
3 6 9 8 5 3 2 2 5 7 4 3 7 3 5 16 22 20 19 22 27 26 26 26 26 25 24 22 20 17 16 15 14 14 14 14 14 13 13 12 11 11 10 11 10 10 10 11 12
9 8 13 7 7 4 2 1 4 1 9 3 2 6 7 20 23 21 21 22 25 25 26 26 26 26 25 23 22 21 20 19 18 17 16 15 14 13 12 12 12 11 11 11 11 11 10 12 12
8 13 13 13 13 7 6 7 3 2 1 2 2 8 15 21 20 19 19 20 21 23 25 25 26 26 25 25 24 23 23 22 21 20 19 18 17 16 14 13 13 12 12 13 13 13 14 13 13
9 14 9 6 8 8 7 3 6 6 6 5 5 4 13 20 20 19 17 18 18 20 21 23 25 26 25 26 25 24 24 23 23 22 21 20 19 19 18 16 16 15 14 14 14 15 16 17 17
11 13 11 25 30 20 14 15 13 12 15 14 16 10 10 11 14 16 16 16 17 19 20 22 22 24 25 26 26 26 26 25 23 22 21 20 20 20 19 18 18 18 18 18 18 18 18 19 19
21 22 23 16 20 11 7 11 9 13 14 15 11 11 10 12 11 11 13 16 19 21 22 22 24 25 25 26 26 26 27 26 24 21 18 17 18 18 17 17 17 19 19 19 20 22 21 23 23
10 14 18 22 20 12 3 12 12 19 15 18 16 12 13 13 14 15 15 14 13 15 15 21 24 26 27 27 28 27 28 25 22 19 15 14 13 13 13 14 13 14 16 17 18 19 23 24 25
11 10 9 10 17 10 9 22 6 12 13 18 16 14 15 16 17 17 18 18 17 18 15 18 22 24 26 28 30 30 28 23 21 18 15 13 13 12 15 14 14 14 16 15 17 17 18 20 23
8 12 13 3 16 9 18 12 7 3 8 13 13 14 17 19 20 20 19 21 20 18 16 13 16 19 22 28 31 31 28 24 22 19 16 13 14 16 19 15 14 15 16 17 17 19 20 22 21
14 12 7 14 8 7 12 7 6 4 7 13 13 15 18 24 28 24 23 22 19 22 20 16 15 16 22 24 23 25 25 24 21 19 17 16 16 14 14 16 15 16 17 19 20 22 21 21 23
9 9 11 5 4 5 10 7 9 6 8 10 10 11 18 22 23 25 24 21 21 22 23 21 19 20 20 21 19 21 24 24 23 21 17 17 15 14 15 16 18 20 21 21 23 25 25 25 25
8 7 6 5 4 4 5 7 8 6 6 6 7 10 12 15 17 13 11 13 15 23 26 23 21 21 21 20 20 21 26 25 22 20 18 15 15 15 14 15 17 19 21 22 23 24 26 27 27
6 10 6 6 1 3 3 6 5 5 4 6 8 8 6 6 10 7 6 9 12 20 26 26 23 23 25 25 23 24 22 22 22 21 14 11 10 9 11 14 15 18 20 22 22 23 25 25 26
11 10 10 9 5 7 3 4 5 5 6 6 5 2 1 3 4 6 8 9 12 15 21 25 27 28 30 28 28 26 25 24 21 14 11 8 8 10 11 11 13 14 16 17 18 20 23 25 26
6 9 12 9 7 4 5 4 4 3 7 7 3 1 3 6 7 8 7 10 15 19 22 26 31 32 32 30 29 26 22 17 15 12 9 7 8 8 8 9 11 12 12 13 15 17 21 23 23
10 5 5 3 2 7 7 7 5 6 8 2 0 4 7 9 10 11 11 14 16 23 29 29 32 33 30 27 26 21 17 18 15 11 7 7 7 8 7 7 6 7 10 12 13 14 17 19 20
6 8 4 5 5 5 2 5 8 2 2 3 6 9 9 11 13 15 15 16 18 20 24 27 27 25 22 19 18 18 16 13 10 8 8 9 10 9 8 8 7 8 9 9 9 12 14 17 19
11 10 5 7 5 4 2 5 1 3 3 3 4 5 9 11 11 10 10 8 7 7 11 17 19 20 18 17 16 15 12 10 9 11 11 11 12 12 11 10 10 11 10 10 9 11 13 15 16
6 7 3 2 2 2 3 2 4 2 4 7 9 8 11 12 14 14 12 9 8 8 12 16 18 17 17 14 12 12 12 12 13 13 14 15 15 17 16 16 15 15 16 15 14 14 13 13 13
10 12 5 3 7 8 4 5 7 6 6 6 10 13 11 17 16 12 8 5 3 11 15 16 15 14 15 15 16 17 18 19 20 20 20 21 21 21 22 21 21 22 22 22 21 21 20 19 19
6 6 3 3 2 7 8 5 2 9 9 10 10 11 11 13 13 13 8 4 2 4 7 10 12 15 16 18 20 21 23 24 24 25 26 28 28 27 28 29 29 29 29 28 30 29 29 27 26
2 4 4 6 8 1 3 8 3 11 7 5 8 11 13 11 10 9 7 6 5 5 9 13 16 18 20 23 24 25 27 28 29 31 32 33 32 32 34 35 36 36 36 36 37 37 37 37 35
Wind_Direction
288 298 305 200 222 229 203 212 289 329 337 340 318 235 245 24 229 342 184 164 173 173 172 171 171 171 172 173 174 170 168 167 170 178 184 178 166 160 156 151 149 151 151 151 150 149 143 134 127
286 290 268 198 227 205 200 174 192 303 312 317 275 204 210 116 154 138 144 163 170 174 173 175 174 172 173 177 178 176 174 174 179 187 185 173 165 162 159 155 153 154 154 156 157 152 147 139 131
283 281 243 223 202 215 209 174 154 306 314 303 272 329 147 82 155 144 156 161 169 175 176 179 178 176 176 180 182 183 183 183 185 186 178 170 166 164 163 161 160 161 162 162 160 157 151 142 137
269 248 104 229 213 207 216 130 309 313 331 24 269 171 90 107 134 156 162 168 171 176 178 181 182 180 181 184 186 192 196 192 186 180 175 170 168 168 169 169 167 169 168 167 166 164 156 148 145
257 249 214 225 226 255 224 261 264 296 297 328 187 202 134 155 148 163 170 174 176 177 180 181 184 184 185 185 189 193 190 186 181 177 175 173 172 173 175 175 176 175 173 173 173 173 167 163 159
169 278 213 227 215 226 234 214 211 257 296 305 235 171 155 173 163 165 177 181 182 181 180 182 184 186 188 188 191 191 188 184 181 178 176 177 178 179 182 185 189 190 186 184 186 189 194 196 196
216 243 236 226 234 242 203 181 161 286 286 281 203 187 272 180 176 168 177 180 181 185 185 186 187 188 190 194 195 194 191 189 187 186 184 185 187 190 194 197 202 202 199 198 198 201 207 213 218
206 243 240 218 236 245 179 260 105 310 297 303 186 189 198 198 176 169 176 180 182 188 192 193 192 193 193 197 199 200 199 197 195 195 196 197 200 204 208 210 211 211 208 210 211 212 212 217 225
176 233 245 240 197 252 273 354 67 324 292 283 209 219 202 196 175 174 175 183 186 191 196 198 198 198 199 202 202 203 206 207 205 204 205 206 210 212 215 219 223 227 227 221 225 227 236 237 228
212 229 238 251 237 258 260 316 305 344 341 241 170 217 195 178 180 179 179 184 191 194 198 201 203 203 204 206 208 209 211 212 213 213 214 215 218 221 226 231 235 240 246 255 252 255 251 255 257
208 238 248 265 243 242 256 291 337 354 309 341 155 158 167 172 185 188 187 190 193 196 201 205 207 208 209 212 215 217 218 221 222 222 222 224 227 231 234 240 243 248 252 254 259 263 269 264 264
219 238 239 270 256 243 250 257 272 263 223 304 326 155 174 184 193 198 200 204 205 206 206 211 212 214 215 218 221 226 228 228 230 231 231 233 235 238 241 245 249 254 258 263 267 267 264 268 269
240 224 211 259 256 253 267 259 264 254 253 268 289 229 195 192 207 219 226 228 227 224 224 222 221 222 220 223 226 229 232 233 236 239 242 243 244 247 249 254 257 262 267 272 275 273 275 275 275
204 223 234 248 252 246 240 257 203 244 239 260 273 226 214 203 199 199 215 229 235 238 237 234 232 232 231 230 231 233 236 235 237 242 246 249 253 252 253 258 262 263 265 268 269 272 272 271 272
188 200 223 213 246 258 242 249 216 244 251 259 257 250 233 214 214 216 221 221 224 221 222 225 231 236 236 236 238 238 239 238 242 246 249 250 251 252 250 255 262 270 267 264 267 271 272 271 273
199 229 228 211 199 231 180 258 249 229 227 248 254 249 240 238 237 238 235 230 228 226 230 232 230 228 230 237 240 241 243 242 240 240 241 243 250 257 258 256 269 273 269 266 269 273 272 275 278
191 210 211 238 200 178 199 243 230 232 215 238 243 249 252 253 250 243 240 236 234 237 239 240 242 248 246 235 234 240 239 237 233 232 233 236 250 242 249 255 263 264 267 269 273 279 281 281 281
186 203 196 205 189 212 196 230 273 268 232 230 242 251 259 247 238 235 241 237 234 234 228 219 222 233 246 253 246 236 234 229 228 226 225 231 240 243 255 258 264 271 272 272 270 272 274 276 277
191 200 213 197 164 167 199 218 264 275 233 235 242 275 271 248 234 235 236 237 234 228 219 218 215 220 229 240 237 227 224 216 220 221 225 236 246 258 271 273 276 278 274 274 273 273 273 273 273
200 202 205 261 253 200 221 243 263 253 238 233 262 282 273 241 232 238 234 235 235 225 219 222 222 226 226 224 234 221 210 212 219 222 239 246 258 265 269 276 281 284 284 281 279 277 275 275 272
204 221 210 241 71 235 255 249 230 235 237 245 255 272 288 251 258 257 254 258 244 220 219 226 230 226 220 222 224 219 212 216 217 226 231 234 247 263 273 279 284 286 288 288 284 277 273 273 274
206 204 217 223 211 230 219 242 215 218 238 235 246 261 358 21 322 296 274 263 256 246 239 235 234 228 223 222 221 214 216 216 217 211 211 224 255 272 285 298 300 295 290 285 281 275 270 267 265
220 191 207 216 209 208 178 244 205 237 230 231 186 304 336 337 320 296 287 270 253 245 243 240 236 229 225 222 216 215 215 212 198 192 213 245 276 295 307 301 298 300 299 292 287 282 276 273 271
155 118 78 97 174 242 199 220 200 203 218 218 297 352 341 326 317 305 293 280 264 253 242 235 232 224 221 216 213 214 198 181 190 208 236 264 282 287 284 294 311 324 311 297 290 283 278 278 275
174 168 170 209 218 249 43 223 268 167 316 314 328 337 348 325 310 299 291 284 275 264 245 231 219 211 200 182 173 174 187 199 214 239 254 267 273 278 279 285 281 307 331 322 307 298 291 285 281
189 195 195 206 216 227 109 243 150 39 26 24 18 14 21 18 1 351 347 336 317 282 229 202 187 177 174 180 188 198 211 228 246 252 257 266 272 274 273 272 280 291 302 308 306 303 295 291 289
164 201 233 127 54 249 218 220 254 125 100 88 67 60 47 38 25 20 15 41 76 124 156 161 165 180 191 199 211 224 236 249 264 260 258 262 268 272 267 263 271 280 284 284 288 289 285 289 292
215 154 169 197 218 235 203 249 244 144 114 76 69 59 44 22 25 21 32 18 126 161 169 176 181 190 204 217 225 233 241 248 252 250 254 264 268 267 267 272 273 274 271 271 271 270 271 274 279
150 176 96 141 231 233 248 229 158 149 114 94 75 42 18 13 11 13 9 32 182 211 214 215 218 224 233 240 244 250 257 262 264 262 261 262 262 262 262 263 265 266 269 271 269 270 269 265 269
58 131 182 220 199 174 266 255 151 143 123 80 42 11 359 2 356 353 348 314 303 256 237 241 248 252 255 259 263 264 269 271 270 269 266 266 267 266 265 265 266 267 268 267 266 267 267 267 263